KFHRCYCD

Guest
Details From KFHR - FRIDAY HARBOR
To CYCD - Nanaimo
Flight Number -
Tags generated
Created
Modified
Stats Distance 46 nm / 86 km
Max Altitude 2,600 ft / 792 m
Waypoints 3
Social Downloads 0
Likes 0
Share VATSIM

Download

Looking for another format? Having issues loading an existing format? Contact us
Advertisement - Login to hide

Notes

Basic altitude profile: - Ascent Rate: 2500ft/min - Ascent Speed: 250kts - Cruise Altitude: 35000ft - Cruise Speed: 420kts - Descent Rate: 1500ft/min - Descent Speed: 250kts Options: - Use NATs: yes - Use PACOTS: yes - Use low airways: yes - Use high airways: yes

Route

KFHR IMPOR CYCD

ID Type Via Altitude (ft/m) Position (lat/lon) Dist (leg/tot) Name
O KFHR APT - 0 / 0 48.52197 / -123.02437 - / 0 nm FRIDAY HARBOR
IMPOR FIX - 2,600 / 792 48.62794 / -123.12540 7 / 7 nm
O CYCD APT - 0 / 0 49.05237 / -123.87011 38 / 46 nm Nanaimo

Altitude Profile

Advertisement - Login to hide

KFHR

Details ICAO KFHR (FRD)
Name FRIDAY HARBOR
Region United States
Timezone America/Los_Angeles (UTC-7.0)
Stats Elevation 113 ft / 34 m (AMSL)
Location 48.522000° -123.024000°
Runways 1
Magnetic Variation 15.728° E

METAR

KFHR 012153Z AUTO 02011G15KT 10SM CLR 09/M03 A3011 RMK AO2 SLP196 T00941028

Decode

TAF

Not found

Departure Runways

ID Width Length Bearing (true/mag) Surface Threshold Overrun Markings Lighting
16 75 ft / 23 m 3,402 ft / 1,037 m 177.06° / 161.33° ASPHALT 0 ft / 0 m 0 ft / 0 m VISUAL EDGE THRESHOLD
34 75 ft / 23 m 3,402 ft / 1,037 m 357.06° / 341.33° ASPHALT 0 ft / 0 m 0 ft / 0 m VISUAL EDGE THRESHOLD REIL-OMNI

CYCD

Details ICAO CYCD (YCD)
Name Nanaimo
Region Canada
Timezone America/Vancouver (UTC-7.0)
Stats Elevation 89 ft / 27 m (AMSL)
Location 49.054600° -123.870000°
Runways 1
Magnetic Variation 15.985° E

METAR

CYCD 012200Z 10007KT 040V120 25SM FEW017 SCT046 BKN070 08/03 A3011 RMK CF1CU3AC2 SLP198

Decode

TAF

TAF CYCD 011738Z 0118/0204 VRB03KT P6SM SCT015 OVC025 TEMPO 0118/0121 5SM -RA BR BKN009 OVC015 BECMG 0118/0120 11005KT FM012100 11005KT P6SM FEW020 BKN040 RMK NXT FCST BY 020000Z

Decode

Destination Runways

ID Width Length Bearing (true/mag) Surface Threshold Overrun Markings Lighting
16 150 ft / 46 m 6,602 ft / 2,012 m 180.86° / 164.87° ASPHALT 197 ft / 60 m 0 ft / 0 m APP EDGE THRESHOLD ODALS
34 150 ft / 46 m 6,602 ft / 2,012 m 0.86° / 344.87° ASPHALT 997 ft / 304 m 0 ft / 0 m APP EDGE THRESHOLD

Approach Navaids

Runway Type Ident Frequency Range Bearing (true/mag) Slope Elevation
16 LOC-ILS ICD 110.35 MHz 18 nm / 33 km 180.86° / 164.87 ° - 90 ft / 27 m (AMSL)
16 GS ICD 110.35 MHz 10 nm / 19 km 180.86° / 164.87 ° 3.00° 90 ft / 27 m (AMSL)